SCOUT A DEB, 2140

Orbit data source: Space-Track

SCOUT A DEB, 2140 is space debris in LEO originally from a launch on Fri, 28 Jan 1966 UTC launched from the Air Force Western Test Range (AFWTR). Debris objects in space refer to the collection of defunct objects orbiting the Earth. Examples of debris include non-operational satellites, rocket bodies, and fragments generated from explosions, collisions, or faulty payload assembly.

Loading next visibility...
Identifier
2140, 1966-005C
Orbit
LEO
Country
Flag of USUS
Related business
Manufacturer
Unknown
Mission
Spacecraft
Bus & Motor
Unknown
Mass
Unknown
Launch date (UTC)
1966-01-28 (60 years ago)
Launch vehicle
Unknown
Launch site
Air Force Western Test Range (AFWTR)
Object type
Payload
Rocket body
Debris
Shape & HBR
Unknown shape, 0.1 m
Radar Cross Section
Small (<0.1 m²)

Expand to show TLE details & history
Last TLE update: 2 days ago

TLE from 2 days ago
0 SCOUT A DEB
1  2140U 66005C   26102.27884448  .00000268  00000-0  30553-3 0  9995
2  2140  89.9618  50.8255 0317182  16.2707 344.8347 13.48419250949574
Epoch: 2026-04-12T06:41Z
TLE epoch observation values (Epoch: 2026-04-12T06:41:32.163Z)
Latitude
-0.00002°
Longitude
109.9554°
Altitude
853.264 km
Speed
7.538 km/s
True Right ascension
03h 23m 18s
True Declination
0° 00' 00"
Sunlit
Object was in daylight at epoch
Visualization orbit readout
Latitude
Unknown
Longitude
Unknown
Altitude
Unknown
Speed
Unknown
Apparent Right ascension
Unknown
Apparent Declination
Unknown
Sunlit
N/A
Visualization observer readout
Local Sidereal Time
22:03:57
Azimuth
Unknown
Elevation
Unknown
Doppler factor
Unknown
Orbital elements
Apogee altitude
1,311.532 km
Perigee altitude
838.724 km
Semi-major axis
7,453.265 km
Eccentricity
0.03172
Inclination
89.9618°
RAAN
50.8255°
Arg. of periapsis
16.2707°
True anomaly
343.84614°
Mean anomaly
344.8347°
Eccentric anomaly
344.34429°
Mean motion
3.37305 °/min
Orbital period
106.73 mins
BSTAR
0.00030553
Loading maneuver chart data...
Computing Atmospheric mass density...
Loading historical data...
Loading historical data...
Loading historical data...
Loading historical data...
Loading historical data...
Loading historical data...
Loading historical data...

Documentation

Showing up to 5 results
|